{"data":{"norad_id":67945,"intl_designator":"2026-037P","name":"STARLINK-36908","alt_names":[],"object_type":"PAYLOAD","status":"ACTIVE","operator":null,"country":"US","launch_date":"2026-02-24","launch_site_code":"AFETR","launch_vehicle":null,"mission":null,"orbit_class":"UNKNOWN","rcs_meters":null,"size_class":null,"mass_kg":null,"dimensions":null,"purposes":["comms"],"wikipedia_slug":null,"has_3d_model":false,"image_url":null,"decayed_at":null,"tle_current":{"epoch":"2026-09-19T04:02:04.152768Z","epoch_age_seconds":178234,"freshness":"STALE","line1":"1 67945U 26037P   26262.16810362  .00012344  00000+0  45721-3 0  9999","line2":"2 67945  43.0018 177.7993 0002471 250.2746 109.7840 15.27589245 32936","mean_motion":15.27589245,"eccentricity":0.0002471,"inclination_deg":43.0018,"raan_deg":177.7993,"arg_perigee_deg":250.2746,"mean_anomaly_deg":109.784,"bstar":0.00045721,"rev_number":3293,"period_min":94.266178209444,"perigee_km":481.32602107947,"apogee_km":484.71680556733,"semimajor_km":6861.1584133234,"source":"CELESTRAK","updated_at":"2026-09-20T09:00:43.709435Z"}}}